Location: Bosmont
(49.7318°N, 3.8587°E)
Time: 14:10:19
(UTC+00:00)

Lacrosse 4 Rocket - Pass Details

Date: 08 February 2023
Orbit: 535 x 608 km, 68.0° (Epoch: 21 March)

Event Time Altitude Azimuth Distance (km) Brightness Sun altitude
Rises 17:47:31 0° 331° (NNW) 2,856 5.2 -9.5°
Reaches altitude 10° 17:51:11 10° 2° (N) 1,933 4.0 -10.1°
Maximum altitude 17:52:56 12° 26° (NNE) 1,785 3.6 -10.4°
Enters shadow 17:54:27 11° 47° (NE) 1,881 3.5 -10.6°
